Flag for Netherlands Weather past 2 weeks in Maastricht, Netherlands

Now
55 °F

Fog.


Feels Like: 54 °F
Forecast: 53 / 69 °F
Wind: 7 mph from Southwest

Location: Maastricht Airport Zuid Limburg

Current Time: Oct 1, 2014 at 8:24:41 AM

Latest Report: Oct 1, 2014 at 7:55 AM


Visibility: 2 mi

Pressure: 30.30 "Hg

Humidity: 94%

Dew point: 54 °F

Location of MaastrichtLocation

Historic Weather in Maastricht — Graph

°F

Maastricht temperature yesterday

Maximum temperature yesterday: 68 °F (at 2:55 PM)
Minimum temperature yesterday: 57 °F (at 8:55 PM)
Average temperature yesterday: 62 °F

Past Weeks' High & Low Weather Summary

 TemperatureHumidityPressure
High77 °F (Sep 17, 3:25 PM)100% (Sep 16, 7:55 AM)30.36 "Hg (Sep 16, 7:55 AM)
Low43 °F (Sep 23, 1:25 AM)50% (Sep 17, 1:55 PM)29.80 "Hg (Sep 18, 8:25 AM)
Average60 °F83%30.07 "Hg
* Reported Sep 16 7:25 AM — Oct 1 7:25 AM, Maastricht, Weather by CustomWeather, © 2014

Note: Actual official high and low records may vary slightly from our data, if they occured in-between our weather recording intervals... More about our weather records

Advertising

Maastricht weather history for previous 24 hours

 ConditionsComfort  
Time TempWeatherWind HumidityBarometerVisibility
7:25 AM
Oct 1
54 °FFog.7 mph100%30.27 "Hg2 mi
6:55 AM55 °FFog.7 mph100%30.27 "Hg2 mi
6:25 AM55 °FFog.7 mph100%30.27 "Hg2 mi
5:55 AM55 °FFog.8 mph100%30.27 "Hg2 mi
5:25 AM57 °FFog.7 mph94%30.27 "Hg2 mi
4:55 AM57 °FFog.8 mph94%30.27 "Hg2 mi
4:25 AM57 °FFog.7 mph100%30.30 "Hg2 mi
3:55 AM57 °FFog.7 mph100%30.30 "Hg2 mi
3:25 AM57 °FFog.5 mph100%30.30 "Hg3 mi
2:55 AM59 °FOvercast.5 mph100%30.30 "Hg4 mi
2:25 AM59 °FPassing clouds.5 mph100%30.30 "Hg5 mi
1:55 AM59 °FPassing clouds.8 mph100%30.27 "Hg2 mi
1:25 AM59 °FPassing clouds.10 mph100%30.30 "Hg1 mi
12:55 AM59 °FPartly cloudy.6 mph94%30.30 "Hg2 mi
12:25 AM59 °FPassing clouds.7 mph94%30.27 "Hg4 mi
11:55 PM
Sep 30
59 °FClear.6 mph94%30.27 "Hg4 mi
11:25 PM61 °FClear.6 mph88%30.27 "Hg4 mi
10:55 PM59 °FClear.3 mph88%30.27 "Hg4 mi
10:25 PM59 °FClear.2 mph88%30.27 "Hg5 mi
9:55 PM59 °FClear.3 mph88%30.27 "Hg5 mi
9:25 PM57 °FClear.3 mph94%30.27 "Hg6 mi
8:55 PM57 °FClear.2 mph94%30.27 "Hg5 mi
8:25 PM59 °FClear.2 mph94%30.27 "HgN/A
7:55 PM61 °FClear.3 mph83%30.27 "HgN/A
7:25 PM63 °FMild.3 mph83%30.27 "HgN/A
6:55 PM66 °FMild.3 mph68%30.27 "HgN/A
6:25 PM66 °FClear.3 mph73%30.27 "HgN/A
5:55 PM68 °FMild.2 mph69%30.27 "HgN/A
5:25 PM68 °FPassing clouds.5 mph69%30.27 "HgN/A
4:55 PM68 °FPassing clouds.6 mph64%30.27 "HgN/A
4:25 PM68 °FPassing clouds.6 mph64%30.27 "HgN/A
3:55 PM68 °FPartly sunny.6 mph64%30.27 "HgN/A
3:25 PM68 °FMild.8 mph69%30.27 "HgN/A
2:55 PM68 °FPassing clouds.7 mph64%30.27 "HgN/A
2:25 PM66 °FPassing clouds.6 mph68%30.27 "HgN/A
1:55 PM64 °FBroken clouds.7 mph73%30.27 "HgN/A
1:25 PM66 °FScattered clouds.9 mph73%30.27 "HgN/A
12:55 PM64 °FBroken clouds.7 mph78%30.27 "HgN/A
12:25 PM64 °FBroken clouds.7 mph78%30.27 "Hg6 mi
11:55 AM64 °FBroken clouds.7 mph83%30.27 "HgN/A
11:25 AM64 °FMostly cloudy.8 mph78%30.27 "Hg6 mi
10:55 AM63 °FScattered clouds.8 mph83%30.27 "Hg5 mi
10:25 AM63 °FPartly sunny.8 mph88%30.27 "Hg4 mi
9:55 AM63 °FMostly cloudy.8 mph88%30.24 "Hg4 mi
9:25 AM61 °FPartly sunny.7 mph94%30.24 "Hg4 mi
8:55 AM61 °FFog.8 mph94%30.24 "Hg3 mi
8:25 AM61 °FFog.7 mph94%30.24 "Hg3 mi
Weather by CustomWeather, © 2014

See weather overviewHow to use our weather pages